Weather History for Salida, CO

Change the Weather History Date:

Sunday, February 17, 2013

  Actual Average (KGUC) Record (KGUC)
Temperature  
Mean Temperature 38 °F -  
Max Temperature 48 °F 29 °F 42 °F (2007)
Min Temperature 28 °F 5 °F -9 °F (2001)
Degree Days  
Heating Degree Days 27    
Moisture  
Dew Point 0 °F    
Average Humidity 22    
Maximum Humidity 60    
Minimum Humidity 11    
Precipitation  
Precipitation 0.00 in - - ()
Sea Level Pressure  
Sea Level Pressure 29.92 in    
Wind  
Wind Speed 11 mph (WSW)    
Max Wind Speed 21 mph    
Max Gust Speed 29 mph    
Visibility 10 miles    
Events      
Averages and records for this station are not official NWS values.
T = Trace of Precipitation, MM = Missing Value Source: NWS Daily Summary

Daily Weather History Graph

Daily Weather History Graph

Search for Another Location

Airport:

Trip Planner

Search our weather history database for the weather conditions in past years. The results will help you decide how hot, cold, wet, or windy it might be!

Date:

Astronomy

Feb. 17, 2013 Rise Set
Actual Time 6:52 AM MST 5:44 PM MST
Civil Twilight 6:25 AM MST 6:11 PM MST
Nautical Twilight 5:54 AM MST 6:42 PM MST
Astronomical Twilight 5:23 AM MST 7:13 PM MST
Moon 10:52 AM MST (2/17) 12:37 AM MST (2/17)
Length of Visible Light 11h 46m
Length of Day
10h 52m
Waxing Crescent, 49% of the Moon is Illuminated
Feb 17
Waxing Crescent
Feb 17
First Quarter
Feb 25
Full
Mar 4
Last Quarter
Mar 11
New

Hourly Weather History & Observations

Time (MST) Temp. Windchill Dew Point Humidity Pressure Visibility Wind Dir Wind Speed Gust Speed Precip Events Conditions
12:15 AM 34.9 °F 29.9 °F 1.4 °F 24% 30.16 in 10.0 mi West 5.8 mph - N/A   Clear
12:35 AM 33.3 °F 25.1 °F 3.0 °F 28% 30.15 in 10.0 mi NW 10.4 mph - N/A   Clear
12:55 AM 35.6 °F 27.1 °F -0.4 °F 22% 30.15 in 10.0 mi West 12.7 mph 19.6 mph N/A   Clear
1:15 AM 37.0 °F 33.3 °F -2.2 °F 19% 30.15 in 10.0 mi West 4.6 mph 16.1 mph N/A   Clear
1:35 AM 37.8 °F 28.3 °F -3.1 °F 18% 30.14 in 10.0 mi WSW 17.3 mph 23.0 mph N/A   Clear
1:55 AM 36.5 °F 27.0 °F 0.1 °F 22% 30.14 in 10.0 mi SW 16.1 mph 23.0 mph N/A   Clear
2:15 AM 36.0 °F 27.1 °F 1.0 °F 23% 30.13 in 10.0 mi SSW 13.8 mph 20.7 mph N/A   Clear
2:35 AM 36.0 °F 29.0 °F 0.7 °F 23% 30.12 in 10.0 mi SSW 9.2 mph - N/A   Clear
2:55 AM 33.4 °F 27.3 °F 1.0 °F 25% 30.12 in 10.0 mi NW 6.9 mph 16.1 mph N/A   Clear
3:15 AM 28.0 °F 24.2 °F 1.9 °F 33% 30.11 in 10.0 mi NNW 3.5 mph - N/A   Clear
3:35 AM 29.7 °F 26.1 °F 1.4 °F 30% 30.10 in 10.0 mi North 3.5 mph - N/A   Clear
3:55 AM 28.9 °F 21.9 °F 1.0 °F 30% 30.09 in 10.0 mi North 6.9 mph - N/A   Clear
4:15 AM 30.2 °F 22.6 °F 0.5 °F 28% 30.08 in 10.0 mi NNW 8.1 mph 16.1 mph N/A   Clear
4:35 AM 31.1 °F 23.7 °F -0.6 °F 26% 30.07 in 10.0 mi WNW 8.1 mph - N/A   Clear
4:55 AM 36.0 °F 26.7 °F -4.0 °F 18% 30.07 in 10.0 mi SW 15.0 mph 20.7 mph N/A   Clear
5:15 AM 36.5 °F 27.4 °F -3.8 °F 18% 30.06 in 10.0 mi SW 15.0 mph 24.2 mph N/A   Clear
5:35 AM 36.3 °F 27.1 °F -4.7 °F 17% 30.05 in 10.0 mi SW 15.0 mph - N/A   Clear
5:55 AM 35.6 °F 27.5 °F -4.2 °F 18% 30.05 in 10.0 mi WSW 11.5 mph - N/A   Clear
6:15 AM 34.5 °F 26.2 °F -2.9 °F 20% 30.04 in 10.0 mi WSW 11.5 mph 16.1 mph N/A   Clear
6:35 AM 34.2 °F 27.5 °F -2.4 °F 21% 30.03 in 10.0 mi WSW 8.1 mph - N/A   Clear
6:55 AM 33.4 °F 25.4 °F -1.3 °F 23% 30.03 in 10.0 mi WSW 10.4 mph 20.7 mph N/A   Clear
7:15 AM 33.3 °F 25.1 °F -1.7 °F 23% 30.03 in 10.0 mi SW 10.4 mph - N/A   Clear
7:35 AM 33.8 °F 27.0 °F -0.6 °F 23% 30.03 in 10.0 mi West 8.1 mph - N/A   Clear
7:55 AM 36.5 °F 30.3 °F -2.2 °F 19% 30.02 in 10.0 mi WSW 8.1 mph 16.1 mph N/A   Clear
8:15 AM 38.3 °F 32.5 °F -2.7 °F 18% 30.02 in 10.0 mi WSW 8.1 mph - N/A   Clear
8:35 AM 38.7 °F 32.4 °F -1.8 °F 18% 30.01 in 10.0 mi SSW 9.2 mph - N/A   Clear
8:55 AM 40.8 °F 33.7 °F -3.6 °F 15% 30.00 in 10.0 mi SSW 12.7 mph 19.6 mph N/A   Clear
9:15 AM 39.6 °F 31.7 °F -2.0 °F 17% 29.98 in 10.0 mi South 13.8 mph 28.8 mph N/A   Clear
9:35 AM 42.3 °F 35.1 °F -4.2 °F 14% 29.98 in 10.0 mi SSW 13.8 mph 24.2 mph N/A   Clear
9:55 AM 42.4 °F 34.4 °F -3.1 °F 15% 29.97 in 10.0 mi SSW 17.3 mph 25.3 mph N/A   Clear
10:15 AM 43.9 °F 35.7 °F -4.2 °F 13% 29.96 in 10.0 mi SSW 19.6 mph 26.5 mph N/A   Clear
10:35 AM 43.7 °F 36.0 °F -2.4 °F 15% 29.95 in 10.0 mi SSW 17.3 mph 25.3 mph N/A   Clear
10:55 AM 45.3 °F 38.4 °F -3.8 °F 13% 29.94 in 10.0 mi SSW 16.1 mph 24.2 mph N/A   Clear
11:15 AM 46.0 °F 40.2 °F -3.3 °F 13% 29.93 in 10.0 mi SW 12.7 mph 24.2 mph N/A   Clear
11:55 AM 45.5 °F 38.1 °F -2.7 °F 13% 29.90 in 10.0 mi SSW 18.4 mph - N/A   Clear
12:15 PM 47.5 °F - -1.3 °F 13% 29.88 in 10.0 mi SSW 15.0 mph 21.9 mph N/A   Clear
12:35 PM 47.1 °F - -1.8 °F 13% 29.86 in 10.0 mi SSW 17.3 mph 24.2 mph N/A   Clear
12:55 PM 47.5 °F - -0.9 °F 13% 29.85 in 10.0 mi SSW 13.8 mph 20.7 mph N/A   Clear
1:15 PM 46.9 °F - -1.3 °F 14% 29.83 in 10.0 mi SSW 16.1 mph 25.3 mph N/A   Clear
1:35 PM 48.0 °F - -0.2 °F 14% 29.83 in 10.0 mi SSW 11.5 mph 17.3 mph N/A   Clear
1:55 PM 47.7 °F - -1.5 °F 13% 29.82 in 10.0 mi SSW 13.8 mph 18.4 mph N/A   Clear
2:15 PM 46.9 °F - -3.5 °F 12% 29.81 in 10.0 mi South 9.2 mph 19.6 mph N/A   Clear
2:35 PM 48.6 °F - -2.6 °F 12% 29.80 in 10.0 mi SSW 11.5 mph 17.3 mph N/A   Clear
2:55 PM 46.9 °F - -4.0 °F 12% 29.78 in 10.0 mi South 12.7 mph 21.9 mph N/A   Scattered Clouds
3:15 PM 46.2 °F 41.2 °F -2.7 °F 13% 29.78 in 10.0 mi SSW 10.4 mph - N/A   Scattered Clouds
3:35 PM 45.7 °F 40.2 °F -3.1 °F 13% 29.77 in 10.0 mi South 11.5 mph 20.7 mph N/A   Clear
3:55 PM 45.1 °F 39.9 °F -3.1 °F 13% 29.77 in 10.0 mi SSW 10.4 mph 18.4 mph N/A   Clear
4:15 PM 44.1 °F 39.0 °F -2.6 °F 14% 29.76 in 10.0 mi SSW 9.2 mph - N/A   Clear
4:35 PM 44.6 °F 38.8 °F -6.7 °F 11% 29.75 in 10.0 mi SW 11.5 mph 16.1 mph N/A   Clear
4:55 PM 44.6 °F 38.8 °F -6.5 °F 12% 29.75 in 10.0 mi WSW 11.5 mph 19.6 mph N/A   Clear
5:15 PM 44.2 °F 38.0 °F -6.9 °F 12% 29.75 in 10.0 mi WSW 12.7 mph 20.7 mph N/A   Clear
5:35 PM 42.6 °F 36.3 °F -6.0 °F 13% 29.74 in 10.0 mi WSW 11.5 mph 26.5 mph N/A   Clear
5:55 PM 41.0 °F 34.3 °F -4.7 °F 14% 29.74 in 10.0 mi WSW 11.5 mph - N/A   Clear
6:15 PM 40.5 °F 33.2 °F -3.3 °F 16% 29.75 in 10.0 mi West 12.7 mph 18.4 mph N/A   Clear
6:35 PM 40.5 °F 33.2 °F -2.2 °F 17% 29.75 in 10.0 mi West 12.7 mph 18.4 mph N/A   Clear
6:55 PM 40.1 °F 31.0 °F -0.8 °F 18% 29.75 in 10.0 mi West 18.4 mph 24.2 mph N/A   Clear
7:15 PM 39.7 °F 30.9 °F 0.9 °F 20% 29.75 in 10.0 mi West 17.3 mph 25.3 mph N/A   Clear
7:35 PM 39.2 °F 30.8 °F 2.7 °F 22% 29.75 in 10.0 mi West 15.0 mph 27.6 mph N/A   Clear
7:55 PM 39.0 °F 29.0 °F 3.7 °F 23% 29.75 in 10.0 mi West 20.7 mph 27.6 mph N/A   Clear
8:15 PM 38.1 °F 31.2 °F 4.8 °F 25% 29.76 in 10.0 mi West 10.4 mph 17.3 mph N/A   Clear
8:35 PM 37.6 °F 30.0 °F 5.7 °F 27% 29.77 in 10.0 mi WNW 11.5 mph 20.7 mph N/A   Clear
8:55 PM 37.4 °F 30.8 °F 5.9 °F 27% 29.76 in 10.0 mi West 9.2 mph - N/A   Clear
9:15 PM 37.0 °F 31.6 °F 6.4 °F 28% 29.77 in 10.0 mi NNW 6.9 mph 18.4 mph N/A   Clear
9:35 PM 36.1 °F 27.7 °F 12.7 °F 38% 29.78 in 10.0 mi NNW 12.7 mph 23.0 mph N/A   Clear
9:55 PM 34.7 °F 25.5 °F 14.7 °F 44% 29.80 in 10.0 mi West 13.8 mph 20.7 mph N/A   Clear
10:15 PM 35.2 °F 27.6 °F 15.8 °F 45% 29.81 in 10.0 mi NNW 10.4 mph 23.0 mph N/A   Mostly Cloudy
10:35 PM 34.0 °F 31.0 °F 17.1 °F 50% 29.80 in 10.0 mi SE 3.5 mph - N/A   Scattered Clouds
10:55 PM 32.0 °F 28.7 °F 19.4 °F 60% 29.80 in 10.0 mi ESE 3.5 mph - N/A   Clear
11:15 PM 31.8 °F 24.6 °F 16.2 °F 52% 29.78 in 10.0 mi South 8.1 mph - N/A   Clear
11:55 PM 31.3 °F 22.1 °F 15.4 °F 52% 29.78 in 10.0 mi WSW 11.5 mph 23.0 mph N/A   Clear